Date String (YYYY-MM-DD hh:mm:ss) UTC,Instrument flags,Ambient pressure (hPa),Sample flow (lpm),Bypass flow (lpm),Sample temperature (°C),Ambient temperature (°C),ASC tube jacket temperature (°C),LED temperature (°C),Box temperature (°C),Sample RH (%),Span deviation,Mass concentration (μg/m³),Mass concentration (μg/m³),Mass concentration (μg/m³)
DateTimeUTC,F1_M11,P_M11,Q1_M11,Q2_M11,T1_M11,T2_M11,T3_M11,T4_M11,T5_M11,U1_M11,ZSPAN_M11,X0_M11,X2_M11,X1_M11
2022-12-14 10:00:00,,0813.1,5.00,0.00,22.5,21.1,00.0,31.3,24.3,10.7,0002.4,0024.38,0010.53,0008.32
2022-12-14 10:01:00,,0813.2,5.00,0.00,22.5,21.1,00.0,31.3,24.3,10.7,0002.2,0024.11,0010.61,0008.36
2022-12-14 10:02:00,,0813.3,4.99,0.00,22.5,21.1,00.0,31.3,24.3,10.7,0002.3,0023.70,0010.65,0008.38
2022-12-14 10:03:00,,0813.0,5.00,0.00,22.5,21.0,00.0,31.3,24.3,10.6,0002.2,0023.19,0010.59,0008.39
2022-12-14 10:04:00,,0813.1,5.00,0.00,22.5,21.0,00.0,31.3,24.3,10.6,0002.4,0023.10,0010.60,0008.42
2022-12-14 10:05:00,,0813.1,5.00,0.00,22.5,21.0,00.0,31.3,24.3,10.6,0002.5,0023.44,0010.58,0008.42
2022-12-14 10:06:00,,0813.1,5.00,0.00,22.5,21.0,00.0,31.3,24.2,10.7,0002.4,0023.65,0010.54,0008.43
2022-12-14 10:07:00,,0813.1,5.00,0.00,22.4,20.9,00.0,31.3,24.2,10.7,0002.0,0022.74,0010.47,0008.43
2022-12-14 10:08:00,,0813.1,4.99,0.00,22.4,20.9,00.0,31.3,24.2,10.8,0001.9,0021.99,0010.44,0008.42
2022-12-14 10:09:00,,0813.1,5.00,0.00,22.4,20.7,00.0,31.3,24.2,10.8,0001.8,0021.01,0010.38,0008.41
2022-12-14 10:10:00,,0813.1,5.00,0.00,22.4,20.7,00.0,31.3,24.1,10.8,0001.8,0020.05,0010.24,0008.40
2022-12-14 10:11:00,,0813.4,5.01,0.00,22.4,21.2,00.0,31.3,24.2,10.7,0001.4,0019.44,0010.23,0008.40
2022-12-14 10:12:00,,0813.2,5.02,0.00,22.5,22.2,00.0,31.3,24.4,10.8,0001.2,0019.11,0010.20,0008.38
2022-12-14 10:13:00,,0813.2,4.97,0.00,22.6,22.3,00.0,31.3,24.5,10.8,0000.8,0018.89,0010.14,0008.36
2022-12-14 10:14:00,,0813.2,5.02,0.00,22.6,22.0,00.0,31.3,24.4,10.7,0000.6,0018.58,0010.09,0008.34
2022-12-14 10:15:00,,0813.1,5.01,0.00,22.5,21.7,00.0,31.3,24.4,10.6,-000.5,0019.22,0010.10,0008.32
2022-12-14 10:16:00,,0813.1,5.01,0.00,22.5,21.5,00.0,31.3,24.3,10.5,-000.7,0019.42,0010.07,0008.30
2022-12-14 10:17:00,,0813.1,4.97,0.00,22.5,21.2,00.0,31.3,24.3,10.5,0000.0,0019.91,0010.14,0008.28
2022-12-14 10:18:00,,0813.0,5.01,0.00,22.5,21.0,00.0,31.3,24.2,10.5,0001.1,0020.06,0010.11,0008.26
2022-12-14 10:19:00,,0813.1,5.04,0.00,22.4,20.8,00.0,31.3,24.1,10.4,0001.1,0020.97,0010.14,0008.23
2022-12-14 10:20:00,,0813.1,4.97,0.00,22.4,20.6,00.0,31.3,24.1,10.4,0000.3,0021.11,0010.15,0008.22
2022-12-14 10:21:00,,0813.1,4.99,0.00,22.3,20.6,00.0,31.3,24.1,10.3,-000.1,0021.53,0010.20,0008.21
2022-12-14 10:22:00,,0813.2,5.03,0.00,22.3,20.6,00.0,31.3,24.1,10.5,-000.3,0021.65,0010.14,0008.19
2022-12-14 10:23:00,,0813.1,4.96,0.00,22.3,20.6,00.0,31.2,24.1,10.6,0000.1,0021.27,0010.09,0008.18
2022-12-14 10:24:00,,0813.1,5.04,0.00,22.3,20.6,00.0,31.2,24.1,10.7,0000.5,0022.22,0010.10,0008.19
2022-12-14 10:25:00,,0813.1,4.95,0.00,22.3,20.5,00.0,31.2,24.0,10.6,0001.2,0023.52,0010.19,0008.22
2022-12-14 10:26:00,,0813.1,5.06,0.00,22.2,20.5,00.0,31.2,24.0,10.5,0001.8,0023.32,0010.12,0008.22
2022-12-14 10:27:00,,0813.1,4.95,0.00,22.3,21.2,00.0,31.2,24.1,10.5,0001.9,0024.17,0010.19,0008.25
2022-12-14 10:28:00,,0813.1,5.03,0.00,22.4,22.2,00.0,31.2,24.3,10.4,0000.6,0025.60,0010.20,0008.26
2022-12-14 10:29:00,,0813.1,4.97,0.00,22.5,22.4,00.0,31.2,24.4,10.4,0000.2,0025.62,0010.20,0008.26
2022-12-14 10:30:00,,0813.1,5.02,0.00,22.5,22.0,00.0,31.2,24.4,10.4,-000.3,0024.99,0010.22,0008.29
2022-12-14 10:31:00,,0813.1,5.01,0.00,22.5,21.7,00.0,31.2,24.3,10.4,0000.3,0025.74,0010.31,0008.33
2022-12-14 10:32:00,,0813.1,4.97,0.00,22.5,21.5,00.0,31.2,24.3,10.5,0000.2,0026.52,0010.36,0008.37
2022-12-14 10:33:00,,0813.1,5.00,0.00,22.4,21.3,00.0,31.2,24.2,10.4,0000.3,0026.30,0010.40,0008.41
2022-12-14 10:34:00,,0813.0,5.01,0.00,22.4,21.2,00.0,31.2,24.2,10.4,0000.5,0027.70,0010.42,0008.43
2022-12-14 10:35:00,,0813.1,5.00,0.00,22.4,21.1,00.0,31.3,24.2,10.4,0000.5,0027.65,0010.43,0008.42
2022-12-14 10:36:00,,0813.1,5.01,0.00,22.4,21.0,00.0,31.2,24.2,10.4,0000.1,0027.35,0010.43,0008.40
2022-12-14 10:37:00,,0813.2,5.00,0.00,22.4,21.0,00.0,31.2,24.2,10.5,-000.2,0027.29,0010.50,0008.40
2022-12-14 10:38:00,,0813.1,4.97,0.00,22.4,21.0,00.0,31.2,24.2,10.5,-000.5,0027.09,0010.53,0008.39
2022-12-14 10:39:00,,0813.2,5.05,0.00,22.4,20.9,00.0,31.2,24.2,10.5,-000.3,0025.48,0010.55,0008.39
2022-12-14 10:40:00,,0813.1,4.95,0.00,22.4,20.9,00.0,31.2,24.2,10.5,-000.2,0025.42,0010.57,0008.40
2022-12-14 10:41:00,,0813.1,5.03,0.00,22.3,20.9,00.0,31.2,24.1,10.5,-000.1,0025.10,0010.53,0008.40
2022-12-14 10:42:00,,0813.0,4.96,0.00,22.3,20.9,00.0,31.2,24.1,10.4,-000.3,0024.73,0010.44,0008.36
2022-12-14 10:43:00,,0813.1,5.01,0.00,22.3,20.8,00.0,31.2,24.1,10.4,-000.4,0024.78,0010.35,0008.31
2022-12-14 10:44:00,,0813.2,5.02,0.00,22.4,21.3,00.0,31.2,24.2,10.4,-000.3,0024.57,0010.30,0008.27
2022-12-14 10:45:00,,0813.2,5.01,0.00,22.5,22.2,00.0,31.2,24.4,10.4,-000.5,0023.51,0010.33,0008.28
2022-12-14 10:46:00,,0813.1,5.00,0.00,22.5,22.5,00.0,31.2,24.5,10.4,-001.0,0022.34,0010.28,0008.29
2022-12-14 10:47:00,,0813.1,5.00,0.00,22.6,22.1,00.0,31.3,24.5,10.4,-001.3,0022.53,0010.30,0008.32
2022-12-14 10:48:00,,0813.1,5.02,0.00,22.6,21.8,00.0,31.3,24.4,10.4,-001.0,0022.31,0010.30,0008.36
2022-12-14 10:49:00,,0813.1,4.97,0.00,22.5,21.6,00.0,31.3,24.4,10.4,-001.1,0021.70,0010.24,0008.39
2022-12-14 10:50:00,,0813.1,5.01,0.00,22.5,21.4,00.0,31.3,24.3,10.3,-001.1,0021.38,0010.22,0008.43
2022-12-14 10:51:00,,0813.1,5.01,0.00,22.5,21.3,00.0,31.3,24.3,10.3,-001.2,0021.56,0010.21,0008.46
2022-12-14 10:52:00,,0813.1,5.01,0.00,22.5,21.2,00.0,31.3,24.3,10.4,-001.4,0021.79,0010.27,0008.49
2022-12-14 10:53:00,,0813.1,5.00,0.00,22.5,21.1,00.0,31.3,24.3,10.4,-001.5,0021.26,0010.28,0008.53
2022-12-14 10:54:00,,0813.1,4.97,0.00,22.5,21.0,00.0,31.3,24.2,10.5,-001.5,0020.50,0010.37,0008.59
2022-12-14 10:55:00,,0813.1,5.04,0.00,22.4,20.9,00.0,31.3,24.2,10.5,-001.3,0021.34,0010.42,0008.62
2022-12-14 10:56:00,,0813.1,4.95,0.00,22.4,20.9,00.0,31.3,24.2,10.5,-001.4,0022.08,0010.48,0008.63
2022-12-14 10:57:00,,0813.1,5.03,0.00,22.4,20.9,00.0,31.3,24.2,10.4,-001.1,0022.25,0010.58,0008.65
2022-12-14 10:58:00,,0813.2,4.97,0.00,22.4,20.9,00.0,31.3,24.2,10.4,-001.0,0021.40,0010.57,0008.64
2022-12-14 10:59:00,,0813.2,5.01,0.00,22.4,20.9,00.0,31.3,24.2,10.4,-001.0,0021.85,0010.55,0008.62
